{"data":{"norad_id":68136,"epoch":"2026-05-25T00:22:29.815104Z","epoch_age_seconds":87777,"freshness":"FRESH","line1":"1 68136U 26047H   26145.01562286 -.00000089  00000+0  75023-4 0  9999","line2":"2 68136  50.0042 139.0063 0000200 353.5214   6.5655 13.29327377  9981","mean_motion":13.29327377,"eccentricity":2.0e-5,"inclination_deg":50.0042,"raan_deg":139.0063,"arg_perigee_deg":353.5214,"mean_anomaly_deg":6.5655,"bstar":7.5023e-5,"rev_number":998,"period_min":108.32546029781,"perigee_km":1149.1508248225,"apogee_km":1149.4519223574,"semimajor_km":7527.43837359,"source":"CELESTRAK","updated_at":"2026-05-25T13:38:07.577515Z"}}